| time (UTC) | temp F | wind direction | speed MPH | gust MPH | rain 1hr in | rain 24hr in | rain mn in | humidity % | barometer mb |
| 20260509212004 | 90 | 5 | 2.0 | 8.0 | 0.00 | 0.00 | 0.00 | 41 | 1008.0 |
| 20260509211211 | 91 | 17 | 2.0 | 7.0 | 0.00 | 0.00 | 0.00 | 41 | 1008.2 |
| 20260509210212 | 91 | 136 | 2.0 | 6.0 | 0.00 | 0.00 | 0.00 | 42 | 1008.3 |
| 20260509205005 | 91 | 110 | 3.0 | 6.0 | 0.00 | 0.00 | 0.00 | 40 | 1008.5 |
| 20260509204004 | 92 | 286 | 0.0 | 2.0 | 0.00 | 0.00 | 0.00 | 40 | 1008.6 |
| 20260509203004 | 91 | 290 | 3.0 | 4.0 | 0.00 | 0.00 | 0.00 | 45 | 1008.7 |
| 20260509202211 | 91 | 355 | 2.0 | 4.0 | 0.00 | 0.00 | 0.00 | 42 | 1008.8 |
| 20260509201211 | 90 | 200 | 2.0 | 6.0 | 0.00 | 0.00 | 0.00 | 45 | 1008.9 |
| 20260509200004 | 90 | 175 | 2.0 | 6.0 | 0.00 | 0.04 | 0.00 | 44 | 1009.0 |
| 20260509195004 | 89 | 279 | 3.0 | 5.0 | 0.00 | 0.04 | 0.00 | 45 | 1009.1 |
| 20260509194212 | 89 | 190 | 2.0 | 5.0 | 0.00 | 0.04 | 0.00 | 45 | 1009.3 |
| 20260509193004 | 89 | 251 | 3.0 | 6.0 | 0.00 | 0.04 | 0.00 | 47 | 1009.4 |
| 20260509192004 | 88 | 194 | 3.0 | 7.0 | 0.00 | 0.04 | 0.00 | 47 | 1009.5 |
| 20260509191004 | 87 | 250 | 2.0 | 5.0 | 0.00 | 0.04 | 0.00 | 49 | 1009.5 |
| 20260509190005 | 87 | 62 | 1.0 | 5.0 | 0.00 | 0.04 | 0.00 | 48 | 1009.7 |
| 20260509185004 | 86 | 291 | 2.0 | 5.0 | 0.00 | 0.04 | 0.00 | 48 | 1009.8 |
| 20260509184004 | 87 | 264 | 3.0 | 6.0 | 0.00 | 0.04 | 0.00 | 49 | 1009.9 |
| 20260509183004 | 86 | 297 | 1.0 | 7.0 | 0.00 | 0.04 | 0.00 | 49 | 1009.9 |
| 20260509182004 | 86 | 263 | 4.0 | 6.0 | 0.00 | 0.04 | 0.00 | 53 | 1010.1 |
| 20260509181212 | 86 | 259 | 4.0 | 6.0 | 0.00 | 0.04 | 0.00 | 52 | 1010.3 |
| 20260509180004 | 85 | 253 | 2.0 | 5.0 | 0.00 | 0.04 | 0.00 | 54 | 1010.4 |
| 20260509175004 | 85 | 196 | 1.0 | 5.0 | 0.00 | 0.04 | 0.00 | 53 | 1010.4 |
| 20260509174004 | 84 | 248 | 1.0 | 5.0 | 0.00 | 0.04 | 0.00 | 53 | 1010.5 |
| 20260509173211 | 84 | 232 | 3.0 | 6.0 | 0.00 | 0.04 | 0.00 | 53 | 1010.8 |
| 20260509172005 | 84 | 250 | 3.0 | 7.0 | 0.00 | 0.04 | 0.00 | 53 | 1010.8 |
| 20260509171005 | 83 | 344 | 2.0 | 5.0 | 0.00 | 0.04 | 0.00 | 56 | 1010.9 |
| 20260509170005 | 83 | 322 | 1.0 | 7.0 | 0.00 | 0.04 | 0.00 | 57 | 1011.0 |
| 20260509165004 | 82 | 302 | 2.0 | 6.0 | 0.00 | 0.04 | 0.00 | 53 | 1011.1 |
| 20260509164004 | 82 | 253 | 4.0 | 7.0 | 0.00 | 0.04 | 0.00 | 53 | 1011.1 |
| 20260509163212 | 80 | 301 | 3.0 | 5.0 | 0.00 | 0.04 | 0.00 | 52 | 1011.1 |
| 20260509162004 | 80 | 334 | 1.0 | 6.0 | 0.00 | 0.04 | 0.00 | 60 | 1011.1 |
| 20260509161004 | 79 | 335 | 3.0 | 5.0 | 0.00 | 0.04 | 0.00 | 65 | 1011.1 |
| 20260509160004 | 79 | 5 | 2.0 | 4.0 | 0.00 | 0.04 | 0.00 | 67 | 1011.3 |
| 20260509155004 | 79 | 276 | 2.0 | 5.0 | 0.00 | 0.04 | 0.00 | 67 | 1011.3 |
| 20260509154004 | 78 | 300 | 1.0 | 5.0 | 0.00 | 0.04 | 0.00 | 69 | 1011.1 |
| 20260509153211 | 78 | 269 | 1.0 | 4.0 | 0.00 | 0.04 | 0.00 | 70 | 1011.2 |
| 20260509152004 | 77 | 281 | 2.0 | 4.0 | 0.00 | 0.04 | 0.00 | 70 | 1011.2 |
| 20260509151211 | 77 | 292 | 4.0 | 7.0 | 0.00 | 0.04 | 0.00 | 70 | 1011.2 |
| 20260509150004 | 76 | 329 | 3.0 | 4.0 | 0.00 | 0.04 | 0.00 | 72 | 1011.2 |
| 20260509145004 | 76 | 274 | 2.0 | 4.0 | 0.00 | 0.04 | 0.00 | 73 | 1011.3 |
| 20260509144004 | 75 | 344 | 3.0 | 7.0 | 0.00 | 0.04 | 0.00 | 74 | 1011.3 |
| 20260509143004 | 75 | 273 | 3.0 | 6.0 | 0.00 | 0.04 | 0.00 | 74 | 1011.2 |
| 20260509142212 | 75 | 338 | 2.0 | 6.0 | 0.00 | 0.04 | 0.00 | 75 | 1011.1 |
| 20260509141004 | 74 | 347 | 1.0 | 6.0 | 0.00 | 0.04 | 0.00 | 76 | 1011.1 |
| 20260509140005 | 73 | 252 | 1.0 | 5.0 | 0.00 | 0.04 | 0.00 | 77 | 1011.1 |
| 20260509135004 | 72 | 340 | 3.0 | 5.0 | 0.00 | 0.04 | 0.00 | 79 | 1011.1 |
| 20260509134005 | 71 | 335 | 2.0 | 6.0 | 0.00 | 0.04 | 0.00 | 81 | 1011.0 |
| 20260509133211 | 70 | 45 | 3.0 | 8.0 | 0.00 | 0.04 | 0.00 | 83 | 1010.8 |
| 20260509132004 | 69 | 346 | 3.0 | 9.0 | 0.00 | 0.04 | 0.00 | 83 | 1010.6 |
| 20260509131004 | 68 | 5 | 4.0 | 8.0 | 0.00 | 0.04 | 0.00 | 85 | 1010.6 |
| 20260509130004 | 67 | 5 | 2.0 | 6.0 | 0.00 | 0.04 | 0.00 | 86 | 1010.6 |
| 20260509125211 | 67 | 355 | 2.0 | 5.0 | 0.00 | 0.04 | 0.00 | 88 | 1010.5 |
| 20260509124004 | 66 | 5 | 4.0 | 5.0 | 0.00 | 0.04 | 0.00 | 89 | 1010.4 |
| 20260509123211 | 66 | 351 | 2.0 | 3.0 | 0.00 | 0.04 | 0.00 | 90 | 1010.3 |
| 20260509122004 | 66 | 360 | 3.0 | 4.0 | 0.00 | 0.04 | 0.00 | 90 | 1010.3 |
| 20260509121003 | 66 | 5 | 1.0 | 5.0 | 0.00 | 0.04 | 0.00 | 90 | 1010.3 |
| 20260509120004 | 66 | 351 | 4.0 | 4.0 | 0.00 | 0.06 | 0.00 | 89 | 1010.4 |
| 20260509115004 | 66 | 35 | 1.0 | 3.0 | 0.00 | 0.06 | 0.00 | 88 | 1010.4 |
| 20260509114004 | 66 | 309 | 0.0 | 3.0 | 0.00 | 0.06 | 0.00 | 88 | 1010.6 |
| 20260509113004 | 66 | 153 | 1.0 | 3.0 | 0.00 | 0.06 | 0.00 | 88 | 1010.6 |
| 20260509112004 | 67 | 245 | 2.0 | 3.0 | 0.00 | 0.06 | 0.00 | 88 | 1010.4 |
| 20260509111004 | 67 | 152 | 4.0 | 5.0 | 0.00 | 0.06 | 0.00 | 88 | 1010.2 |
| 20260509110004 | 68 | 231 | 1.0 | 4.0 | 0.00 | 0.06 | 0.00 | 88 | 1010.1 |
| 20260509105004 | 68 | 218 | 2.0 | 2.0 | 0.00 | 0.06 | 0.00 | 88 | 1009.7 |
| 20260509104004 | 68 | 131 | 1.0 | 5.0 | 0.00 | 0.06 | 0.00 | 88 | 1009.4 |
| 20260509103004 | 68 | 348 | 3.0 | 9.0 | 0.00 | 0.06 | 0.00 | 87 | 1009.1 |
| 20260509102004 | 68 | 23 | 8.0 | 12.0 | 0.00 | 0.06 | 0.00 | 87 | 1009.0 |
| 20260509101004 | 69 | 355 | 8.0 | 15.0 | 0.00 | 0.06 | 0.00 | 87 | 1008.9 |
| 20260509100005 | 70 | 162 | 1.0 | 15.0 | 0.00 | 0.06 | 0.00 | 88 | 1008.4 |
| 20260509095004 | 70 | 288 | 1.0 | 4.0 | 0.00 | 0.06 | 0.00 | 89 | 1007.9 |
| 20260509094004 | 70 | 198 | 2.0 | 8.0 | 0.00 | 0.06 | 0.00 | 90 | 1007.4 |
| 20260509093212 | 70 | 205 | 4.0 | 15.0 | 0.00 | 0.06 | 0.00 | 90 | 1006.9 |
| 20260509092005 | 69 | 166 | 11.0 | 15.0 | 0.00 | 0.06 | 0.00 | 91 | 1006.7 |
| 20260509091004 | 69 | 153 | 7.0 | 14.0 | 0.00 | 0.06 | 0.00 | 91 | 1006.8 |
| 20260509090005 | 69 | 196 | 3.0 | 10.0 | 0.00 | 0.06 | 0.00 | 90 | 1007.2 |
| 20260509085004 | 69 | 126 | 2.0 | 8.0 | 0.00 | 0.06 | 0.00 | 90 | 1008.4 |
| 20260509084004 | 69 | 166 | 7.0 | 9.0 | 0.00 | 0.06 | 0.00 | 90 | 1008.4 |
| 20260509083004 | 69 | 167 | 4.0 | 9.0 | 0.00 | 0.06 | 0.00 | 89 | 1008.6 |
| 20260509082004 | 69 | 146 | 4.0 | 12.0 | 0.00 | 0.06 | 0.00 | 90 | 1008.7 |
| 20260509081004 | 69 | 183 | 4.0 | 10.0 | 0.00 | 0.06 | 0.00 | 90 | 1008.9 |
| 20260509080004 | 69 | 132 | 9.0 | 10.0 | 0.00 | 0.06 | 0.00 | 90 | 1009.0 |
| 20260509075004 | 68 | 158 | 7.0 | 12.0 | 0.00 | 0.06 | 0.00 | 90 | 1009.5 |
| 20260509074004 | 68 | 117 | 7.0 | 10.0 | 0.00 | 0.06 | 0.00 | 89 | 1009.8 |
| 20260509073004 | 68 | 150 | 1.0 | 5.0 | 0.00 | 0.06 | 0.00 | 89 | 1010.7 |
| 20260509072004 | 69 | 191 | 1.0 | 3.0 | 0.00 | 0.06 | 0.00 | 90 | 1011.2 |
| 20260509071004 | 69 | 94 | 3.0 | 6.0 | 0.00 | 0.06 | 0.00 | 90 | 1011.6 |
| 20260509070211 | 68 | 351 | 3.0 | 9.0 | 0.00 | 0.06 | 0.00 | 91 | 1012.0 |
| 20260509065004 | 68 | 337 | 3.0 | 12.0 | 0.00 | 0.06 | 0.00 | 92 | 1012.6 |
| 20260509064004 | 68 | 350 | 5.0 | 10.0 | 0.00 | 0.06 | 0.00 | 92 | 1012.4 |
| 20260509063004 | 68 | 338 | 2.0 | 3.0 | 0.00 | 0.06 | 0.00 | 91 | 1011.8 |
| 20260509062005 | 68 | 284 | 0.0 | 4.0 | 0.00 | 0.06 | 0.00 | 91 | 1011.6 |
| 20260509061005 | 68 | 333 | 1.0 | 5.0 | 0.00 | 0.06 | 0.00 | 90 | 1011.7 |
| 20260509060004 | 68 | 355 | 1.0 | 4.0 | 0.00 | 0.06 | 0.00 | 90 | 1011.2 |
| 20260509055004 | 68 | 12 | 2.0 | 2.0 | 0.00 | 0.06 | 0.00 | 89 | 1010.5 |
| 20260509054004 | 68 | 128 | 1.0 | 2.0 | 0.00 | 0.06 | 0.00 | 89 | 1010.3 |
| 20260509053004 | 69 | 157 | 1.0 | 2.0 | 0.00 | 0.06 | 0.00 | 88 | 1010.4 |
| 20260509052004 | 69 | 121 | 0.0 | 1.0 | 0.00 | 0.06 | 0.00 | 88 | 1010.6 |
| 20260509051211 | 69 | 115 | 0.0 | 2.0 | 0.00 | 0.06 | 0.00 | 88 | 1010.7 |
| 20260509050004 | 69 | 94 | 1.0 | 1.0 | 0.00 | 0.06 | 0.00 | 88 | 1010.5 |
| 20260509045004 | 70 | 105 | 0.0 | 2.0 | 0.00 | 0.06 | 0.00 | 88 | 1010.4 |
| 20260509044004 | 70 | 117 | 1.0 | 5.0 | 0.00 | 0.06 | 0.00 | 88 | 1009.9 |
| 20260509043005 | 70 | 117 | 2.0 | 5.0 | 0.00 | 0.06 | 0.00 | 87 | 1009.8 |
| 20260509042005 | 70 | 125 | 2.0 | 4.0 | 0.00 | 0.06 | 0.00 | 87 | 1009.9 |
| 20260509041005 | 70 | 145 | 1.0 | 7.0 | 0.00 | 0.06 | 0.00 | 87 | 1009.7 |
| 20260509040005 | 71 | 131 | 2.0 | 8.0 | 0.00 | 0.06 | 0.00 | 86 | 1009.4 |
| 20260509035004 | 71 | 152 | 3.0 | 5.0 | 0.00 | 0.06 | 0.00 | 86 | 1009.4 |
| 20260509034005 | 71 | 123 | 3.0 | 7.0 | 0.00 | 0.06 | 0.00 | 86 | 1009.4 |
| 20260509033004 | 71 | 167 | 4.0 | 10.0 | 0.00 | 0.06 | 0.00 | 85 | 1009.3 |
| 20260509032004 | 71 | 142 | 4.0 | 7.0 | 0.00 | 0.06 | 0.00 | 85 | 1009.4 |
| 20260509031004 | 72 | 157 | 2.0 | 8.0 | 0.00 | 0.06 | 0.00 | 85 | 1009.3 |
| 20260509030212 | 72 | 165 | 2.0 | 6.0 | 0.00 | 0.06 | 0.00 | 85 | 1009.0 |
| 20260509025004 | 72 | 158 | 5.0 | 7.0 | 0.00 | 0.06 | 0.00 | 84 | 1008.9 |
| 20260509024004 | 72 | 142 | 3.0 | 7.0 | 0.00 | 0.06 | 0.00 | 84 | 1008.8 |
| 20260509023004 | 72 | 174 | 3.0 | 7.0 | 0.00 | 0.06 | 0.00 | 84 | 1008.6 |
| 20260509022004 | 72 | 146 | 3.0 | 8.0 | 0.00 | 0.06 | 0.00 | 84 | 1008.6 |
| 20260509021004 | 72 | 136 | 4.0 | 8.0 | 0.00 | 0.06 | 0.00 | 83 | 1008.6 |
| 20260509020004 | 72 | 167 | 4.0 | 7.0 | 0.00 | 0.06 | 0.00 | 83 | 1008.6 |
| 20260509015004 | 73 | 181 | 3.0 | 7.0 | 0.00 | 0.06 | 0.00 | 82 | 1008.7 |
| 20260509014004 | 73 | 136 | 2.0 | 6.0 | 0.00 | 0.06 | 0.00 | 82 | 1008.6 |
| 20260509013004 | 73 | 130 | 2.0 | 3.0 | 0.00 | 0.06 | 0.00 | 82 | 1008.5 |
| 20260509012211 | 73 | 121 | 0.0 | 5.0 | 0.00 | 0.06 | 0.00 | 81 | 1008.5 |
| 20260509011211 | 73 | 146 | 4.0 | 7.0 | 0.00 | 0.06 | 0.00 | 80 | 1008.2 |
| 20260509010004 | 74 | 126 | 4.0 | 8.0 | 0.00 | 0.06 | 0.00 | 79 | 1008.0 |
| 20260509005004 | 74 | 138 | 1.0 | 6.0 | 0.00 | 0.06 | 0.00 | 79 | 1008.0 |
| 20260509004005 | 74 | 127 | 2.0 | 3.0 | 0.00 | 0.06 | 0.00 | 79 | 1008.0 |
| 20260509003211 | 74 | 125 | 1.0 | 3.0 | 0.00 | 0.06 | 0.00 | 78 | 1008.0 |
| 20260509002004 | 74 | 63 | 1.0 | 4.0 | 0.00 | 0.06 | 0.00 | 78 | 1008.0 |
| 20260509001004 | 75 | 147 | 1.0 | 5.0 | 0.00 | 0.06 | 0.00 | 78 | 1008.1 |
| 20260509000004 | 75 | 98 | 2.0 | 6.0 | 0.00 | 0.06 | 0.06 | 77 | 1008.1 |
| 20260508235004 | 75 | 117 | 1.0 | 6.0 | 0.00 | 0.06 | 0.06 | 76 | 1008.3 |
| 20260508234004 | 75 | 93 | 2.0 | 4.0 | 0.00 | 0.06 | 0.06 | 76 | 1008.2 |
| 20260508233004 | 75 | 148 | 2.0 | 6.0 | 0.00 | 0.06 | 0.06 | 76 | 1008.3 |
| 20260508232004 | 75 | 123 | 4.0 | 7.0 | 0.00 | 0.06 | 0.06 | 76 | 1008.2 |
| 20260508231004 | 75 | 180 | 2.0 | 7.0 | 0.00 | 0.06 | 0.06 | 76 | 1008.2 |
| 20260508230004 | 75 | 159 | 6.0 | 8.0 | 0.00 | 0.06 | 0.06 | 76 | 1008.1 |
| 20260508225211 | 75 | 140 | 4.0 | 9.0 | 0.00 | 0.06 | 0.06 | 77 | 1008.1 |
| 20260508224004 | 74 | 168 | 6.0 | 10.0 | 0.00 | 0.06 | 0.06 | 77 | 1008.2 |
| 20260508223211 | 74 | 150 | 4.0 | 11.0 | 0.00 | 0.06 | 0.06 | 77 | 1008.3 |
| 20260508222005 | 74 | 128 | 7.0 | 8.0 | 0.00 | 0.06 | 0.06 | 77 | 1008.3 |
| 20260508221005 | 74 | 141 | 3.0 | 9.0 | 0.00 | 0.06 | 0.06 | 76 | 1008.5 |
| 20260508220004 | 74 | 180 | 3.0 | 9.0 | 0.00 | 0.06 | 0.06 | 77 | 1008.6 |
| 20260508215004 | 73 | 185 | 5.0 | 9.0 | 0.00 | 0.06 | 0.06 | 76 | 1008.8 |
| 20260508214004 | 73 | 159 | 2.0 | 7.0 | 0.00 | 0.06 | 0.06 | 76 | 1009.0 |
| 20260508213004 | 73 | 132 | 3.0 | 6.0 | 0.00 | 0.06 | 0.06 | 77 | 1009.1 |